Yaogan 37 01 xing

operational
NORAD ID: 55244 Int'l Des: 2023-006 Owner: ZZB Country: CN Constellation: yaogan
LEOCIRCULAR

关于 Yaogan 37 01 xing

正在加载描述...

实时位置

正在加载3D地球...

即将过境

高度历史

Altitude vs Time

uPlot chart will show altitude changes over time

两行轨道根数

1 55244U 23006C 26062.18290110 .00008444 00000-0 44185-3 0 9994
2 55244 43.1980 349.5119 0016862 61.9801 298.2753 15.16015279173786
Epoch: Mar 3, 2026 • Age: 20 hours

当前状态

高度 541.8 km
速度 7.59 km/s
星下点 -43.33°S, 159.7°E
发射日期 Jan 13, 2023
运行时间 3.1 years
类型 military

技术详情

分类 Payload
质量 1000.00 kg
干质量 1000.00 kg
总质量 1000.00 kg
长度 2.50 m
直径 2.50 m
跨度 5.00 m
形状 Box + 2 Pan
制造商 DFHZ
阶段状态 In Orbit
所有者/国家 ZZB/CN

大型星座

Loading constellations...